,,Stat5,,Stat1,,Stat2,,Stat3,,Stat4,,Wind1,,Wind1,
time,status,PA1M_AVG,status,PR1M_SUM,status,RH1M_AVG,status,SR1M_AVG,status,TA1M_AVG,status,W1dAve1m,status,W1sAve1m,
2003-09-19, 00:00:00,VALID,920.827,VALID,0,VALID,95.982,VALID,-0.0339617,VALID,18.6707,VALID,360,VALID,0.79375,
2003-09-19, 00:01:00,VALID,920.818,VALID,0,VALID,96.0468,VALID,0,VALID,18.6933,VALID,4,VALID,0.985008,
2003-09-19, 00:02:00,VALID,920.797,VALID,0,VALID,95.912,VALID,0,VALID,18.7064,VALID,294,VALID,0.84707,
2003-09-19, 00:03:00,VALID,920.802,VALID,0,VALID,95.9858,VALID,-0.0169808,VALID,18.6935,VALID,5,VALID,1.12183,
2003-09-19, 00:04:00,VALID,920.785,VALID,0,VALID,96.0367,VALID,0,VALID,18.703,VALID,337,VALID,1.08134,
2003-09-19, 00:05:00,VALID,920.754,VALID,0,VALID,95.823,VALID,0,VALID,18.6739,VALID,358,VALID,1.02385,
2003-09-19, 00:06:00,VALID,920.717,VALID,0,VALID,95.8548,VALID,-0.0169808,VALID,18.6774,VALID,358,VALID,0.738741,
2003-09-19, 00:07:00,VALID,920.695,VALID,0,VALID,95.7785,VALID,0,VALID,18.6806,VALID,16,VALID,1.24139,
2003-09-19, 00:08:00,VALID,920.676,VALID,0,VALID,95.6081,VALID,0,VALID,18.6806,VALID,22,VALID,1.02675,
2003-09-19, 00:09:00,VALID,920.669,VALID,0,VALID,95.5585,VALID,-0.0169808,VALID,18.6806,VALID,352,VALID,0.577703,
2003-09-19, 00:10:00,VALID,920.704,VALID,0,VALID,95.322,VALID,0,VALID,18.6647,VALID,353,VALID,1.04688,
2003-09-19, 00:11:00,VALID,920.705,VALID,0,VALID,95.247,VALID,-0.0169808,VALID,18.6322,VALID,2,VALID,1.09852,
2003-09-19, 00:12:00,VALID,920.688,VALID,0,VALID,95.4009,VALID,0,VALID,18.6257,VALID,20,VALID,0.513514,
2003-09-19, 00:13:00,VALID,920.702,VALID,0,VALID,95.5166,VALID,-0.0169808,VALID,18.6193,VALID,19,VALID,0.011489,
2003-09-19, 00:14:00,VALID,920.712,VALID,0,VALID,95.4695,VALID,-0.0169808,VALID,18.6329,VALID,344,VALID,0.161914,
2003-09-19, 00:15:00,VALID,920.693,VALID,0,VALID,95.4454,VALID,-0.0169808,VALID,18.6421,VALID,341,VALID,0.296205,
2003-09-19, 00:16:00,VALID,920.674,VALID,0,VALID,95.4238,VALID,-0.0169808,VALID,18.6617,VALID,16,VALID,0.673986,
2003-09-19, 00:17:00,VALID,920.66,VALID,0,VALID,95.2635,VALID,0,VALID,18.6677,VALID,25,VALID,0.579644,
2003-09-19, 00:18:00,VALID,920.635,VALID,0,VALID,95.2457,VALID,-0.0169808,VALID,18.6712,VALID,14,VALID,0.740543,
2003-09-19, 00:19:00,VALID,920.617,VALID,0,VALID,95.0766,VALID,-0.0509425,VALID,18.6557,VALID,323,VALID,0.953526,
2003-09-19, 00:20:00,VALID,920.623,VALID,0,VALID,95.0117,VALID,0,VALID,18.6354,VALID,315,VALID,0.701941,
2003-09-19, 00:21:00,VALID,920.605,VALID,0,VALID,95.1122,VALID,0,VALID,18.6391,VALID,353,VALID,0.506611,
2003-09-19, 00:22:00,VALID,920.57,VALID,0,VALID,95.4403,VALID,0,VALID,18.6548,VALID,5,VALID,0.655066,
2003-09-19, 00:23:00,VALID,920.548,VALID,0,VALID,95.617,VALID,-0.0169808,VALID,18.6617,VALID,8,VALID,0.848116,
2003-09-19, 00:24:00,VALID,920.53,VALID,0,VALID,95.5903,VALID,0,VALID,18.6324,VALID,325,VALID,0.860609,
2003-09-19, 00:25:00,VALID,920.544,VALID,0,VALID,95.6259,VALID,0,VALID,18.6163,VALID,7,VALID,0.892463,
2003-09-19, 00:26:00,VALID,920.505,VALID,0,VALID,95.4212,VALID,-0.0169808,VALID,18.6128,VALID,358,VALID,1.81851,
2003-09-19, 00:27:00,VALID,920.477,VALID,0,VALID,94.9939,VALID,-0.0169808,VALID,18.6163,VALID,345,VALID,1.50284,
2003-09-19, 00:28:00,VALID,920.466,VALID,0,VALID,95.2534,VALID,-0.0509425,VALID,18.62,VALID,354,VALID,1.07475,
2003-09-19, 00:29:00,VALID,920.452,VALID,0,VALID,95.3691,VALID,-0.0169808,VALID,18.6004,VALID,328,VALID,0.784722,
2003-09-19, 00:30:00,VALID,920.054,VALID,0,VALID,95.3792,VALID,-0.0339617,VALID,18.5944,VALID,353,VALID,1.01215,
2003-09-19, 00:31:00,VALID,920.463,VALID,0,VALID,94.8871,VALID,-0.0169808,VALID,18.5778,VALID,354,VALID,1.50992,
2003-09-19, 00:32:00,VALID,920.431,VALID,0,VALID,95.0652,VALID,0,VALID,18.6232,VALID,356,VALID,0.787224,
2003-09-19, 00:33:00,VALID,920.419,VALID,0,VALID,95.1745,VALID,0,VALID,18.649,VALID,15,VALID,0.995898,
2003-09-19, 00:34:00,VALID,920.438,VALID,0,VALID,95.2584,VALID,-0.0169808,VALID,18.6751,VALID,15,VALID,0.551116,
2003-09-19, 00:35:00,VALID,920.45,VALID,0,VALID,95.4238,VALID,-0.0169808,VALID,18.7044,VALID,27,VALID,0.578336,
2003-09-19, 00:36:00,VALID,920.45,VALID,0,VALID,95.4759,VALID,-0.0169808,VALID,18.7265,VALID,28,VALID,0.176432,
2003-09-19, 00:37:00,VALID,920.436,VALID,0,VALID,95.5204,VALID,-0.0339617,VALID,18.7394,VALID,21,VALID,0.500617,
2003-09-19, 00:38:00,VALID,920.415,VALID,0,VALID,95.5026,VALID,0,VALID,18.7556,VALID,5,VALID,0.488582,
2003-09-19, 00:39:00,VALID,920.401,VALID,0,VALID,94.7918,VALID,0,VALID,18.7224,VALID,360,VALID,1.15365,
2003-09-19, 00:40:00,VALID,920.398,VALID,0,VALID,94.2602,VALID,0,VALID,18.7168,VALID,359,VALID,1.15885,
2003-09-19, 00:41:00,VALID,920.395,VALID,0,VALID,94.0491,VALID,0,VALID,18.7138,VALID,352,VALID,1.02533,
2003-09-19, 00:42:00,VALID,920.38,VALID,0,VALID,93.6549,VALID,-0.0509425,VALID,18.7332,VALID,16,VALID,1.25965,
2003-09-19, 00:43:00,VALID,920.368,VALID,0,VALID,93.4172,VALID,0,VALID,18.7556,VALID,359,VALID,1.39145,
2003-09-19, 00:44:00,VALID,920.368,VALID,0,VALID,92.7839,VALID,-0.0169808,VALID,18.7943,VALID,357,VALID,1.23759,
2003-09-19, 00:45:00,VALID,920.352,VALID,0,VALID,92.5347,VALID,-0.0169808,VALID,18.8298,VALID,1,VALID,1.06891,
2003-09-19, 00:46:00,VALID,920.338,VALID,0,VALID,92.6059,VALID,-0.0339617,VALID,18.8524,VALID,11,VALID,0.918561,
2003-09-19, 00:47:00,VALID,920.328,VALID,0,VALID,92.7419,VALID,-0.0339617,VALID,18.8614,VALID,21,VALID,1.47382,
2003-09-19, 00:48:00,VALID,920.3,VALID,0,VALID,92.6847,VALID,-0.0169808,VALID,18.9009,VALID,8,VALID,1.21484,
2003-09-19, 00:49:00,VALID,920.287,VALID,0,VALID,92.5397,VALID,-0.0169808,VALID,18.8937,VALID,358,VALID,1.23741,
2003-09-19, 00:50:00,VALID,920.261,VALID,0,VALID,92.1532,VALID,-0.0169808,VALID,18.8877,VALID,305,VALID,1.01035,
2003-09-19, 00:51:00,VALID,920.239,VALID,0,VALID,92.4189,VALID,0,VALID,18.9039,VALID,15,VALID,0.71921,
2003-09-19, 00:52:00,VALID,920.214,VALID,0,VALID,92.8348,VALID,0,VALID,18.9069,VALID,14,VALID,0.462695,
2003-09-19, 00:53:00,VALID,920.186,VALID,0,VALID,93.2073,VALID,0,VALID,18.917,VALID,11,VALID,0.279241,
2003-09-19, 00:54:00,VALID,920.166,VALID,0,VALID,93.5151,VALID,-0.0339617,VALID,18.8875,VALID,332,VALID,0.192779,
2003-09-19, 00:55:00,VALID,920.144,VALID,0,VALID,93.894,VALID,0,VALID,18.8815,VALID,325,VALID,0,
2003-09-19, 00:56:00,VALID,920.12,VALID,0,VALID,94.1763,VALID,0,VALID,18.8783,VALID,325,VALID,0,
2003-09-19, 00:57:00,VALID,920.118,VALID,0,VALID,94.3086,VALID,0,VALID,18.8552,VALID,329,VALID,0.046875,
2003-09-19, 00:58:00,VALID,920.091,VALID,0,VALID,94.587,VALID,0,VALID,18.8711,VALID,18,VALID,0.870502,
2003-09-19, 00:59:00,VALID,920.066,VALID,0,VALID,94.8057,VALID,0.0169808,VALID,18.881,VALID,12,VALID,0.457131,
2003-09-19, 01:00:00,VALID,920.051,VALID,0,VALID,94.6328,VALID,0,VALID,18.885,VALID,282,VALID,0.402699,
2003-09-19, 01:01:00,VALID,920.07,VALID,0,VALID,94.6824,VALID,0,VALID,18.8557,VALID,256,VALID,0.262178,
2003-09-19, 01:02:00,VALID,920.065,VALID,0,VALID,94.4929,VALID,0,VALID,18.8229,VALID,352,VALID,0.590666,
2003-09-19, 01:03:00,VALID,920.056,VALID,0,VALID,94.554,VALID,0,VALID,18.8395,VALID,25,VALID,0.799632,
2003-09-19, 01:04:00,VALID,920.047,VALID,0,VALID,94.7663,VALID,-0.0339617,VALID,18.8907,VALID,21,VALID,0.984776,
2003-09-19, 01:05:00,VALID,920.043,VALID,0,VALID,94.8172,VALID,0,VALID,18.9329,VALID,19,VALID,0.627604,
2003-09-19, 01:06:00,VALID,920.048,VALID,0,VALID,94.7218,VALID,0,VALID,18.9553,VALID,20,VALID,0.0118243,
2003-09-19, 01:07:00,VALID,920.047,VALID,0,VALID,94.5057,VALID,0,VALID,18.9779,VALID,19,VALID,0.0770399,
2003-09-19, 01:08:00,VALID,920.024,VALID,0,VALID,94.2221,VALID,0,VALID,18.9747,VALID,17,VALID,0.46441,
2003-09-19, 01:09:00,VALID,920.011,VALID,0,VALID,94.4332,VALID,-0.0339617,VALID,19.001,VALID,17,VALID,0.613809,
2003-09-19, 01:10:00,VALID,919.992,VALID,0,VALID,94.4573,VALID,0.0169808,VALID,19.007,VALID,10,VALID,0.829733,
2003-09-19, 01:11:00,VALID,919.972,VALID,0,VALID,94.1483,VALID,0,VALID,19.007,VALID,16,VALID,1.1668,
2003-09-19, 01:12:00,VALID,919.95,VALID,0,VALID,93.8075,VALID,-0.0679233,VALID,19.0077,VALID,11,VALID,1.27321,
2003-09-19, 01:13:00,VALID,919.938,VALID,0,VALID,93.7134,VALID,-0.101885,VALID,19.0372,VALID,3,VALID,0.530828,
2003-09-19, 01:14:00,VALID,919.957,VALID,0,VALID,93.585,VALID,-0.118866,VALID,19.0464,VALID,359,VALID,0.17513,
2003-09-19, 01:15:00,VALID,919.96,VALID,0,VALID,93.4985,VALID,-0.101885,VALID,19.0501,VALID,14,VALID,0.724095,
2003-09-19, 01:16:00,VALID,919.964,VALID,0,VALID,93.7974,VALID,-0.101885,VALID,19.0603,VALID,19,VALID,1.02604,
2003-09-19, 01:17:00,VALID,919.956,VALID,0,VALID,93.9678,VALID,-0.0679233,VALID,19.0598,VALID,18,VALID,1.39678,
2003-09-19, 01:18:00,VALID,919.938,VALID,0,VALID,93.7821,VALID,-0.101885,VALID,19.0725,VALID,5,VALID,1.01903,
2003-09-19, 01:19:00,VALID,919.929,VALID,0,VALID,93.6371,VALID,-0.101885,VALID,19.1149,VALID,10,VALID,0.483665,
2003-09-19, 01:20:00,VALID,919.928,VALID,0,VALID,93.5761,VALID,-0.101885,VALID,19.1341,VALID,355,VALID,0.250919,
2003-09-19, 01:21:00,VALID,919.917,VALID,0,VALID,93.5494,VALID,-0.101885,VALID,19.1636,VALID,240,VALID,0.138569,
2003-09-19, 01:22:00,VALID,919.898,VALID,0,VALID,93.6104,VALID,-0.118866,VALID,19.1723,VALID,272,VALID,0.193015,
2003-09-19, 01:23:00,VALID,919.876,VALID,0,VALID,93.4286,VALID,-0.101885,VALID,19.1795,VALID,354,VALID,0.754207,
2003-09-19, 01:24:00,VALID,919.855,VALID,0,VALID,93.4782,VALID,-0.118866,VALID,19.1959,VALID,292,VALID,0.326941,
2003-09-19, 01:25:00,VALID,919.827,VALID,0,VALID,93.3688,VALID,-0.0849042,VALID,19.186,VALID,232,VALID,0.0646115,
2003-09-19, 01:26:00,VALID,919.794,VALID,0,VALID,93.2518,VALID,-0.101885,VALID,19.1726,VALID,189,VALID,0.0839844,
2003-09-19, 01:27:00,VALID,919.774,VALID,0,VALID,93.4807,VALID,-0.0339617,VALID,19.1848,VALID,178,VALID,0.186198,
2003-09-19, 01:28:00,VALID,919.754,VALID,0,VALID,93.5202,VALID,0,VALID,19.1841,VALID,156,VALID,0.111064,
2003-09-19, 01:29:00,VALID,919.737,VALID,0,VALID,93.5519,VALID,0.0339617,VALID,19.2034,VALID,11,VALID,0.274357,
2003-09-19, 01:30:00,VALID,919.712,VALID,0,VALID,93.6791,VALID,0.0169808,VALID,19.2032,VALID,11,VALID,0.184375,
2003-09-19, 01:31:00,VALID,919.684,VALID,0,VALID,93.7071,VALID,0.0169808,VALID,19.2099,VALID,18,VALID,0.865402,
2003-09-19, 01:32:00,VALID,919.637,VALID,0,VALID,93.6308,VALID,0.0339617,VALID,19.1935,VALID,23,VALID,0.605785,
2003-09-19, 01:33:00,VALID,919.593,VALID,0,VALID,93.6448,VALID,0.0169808,VALID,19.158,VALID,19,VALID,0.870443,
2003-09-19, 01:34:00,VALID,919.574,VALID,0,VALID,93.9385,VALID,0.0509425,VALID,19.123,VALID,13,VALID,0.858964,
2003-09-19, 01:35:00,VALID,919.539,VALID,0,VALID,94.2462,VALID,0,VALID,19.0807,VALID,26,VALID,0.844752,
2003-09-19, 01:36:00,VALID,919.536,VALID,0,VALID,94.3887,VALID,0,VALID,19.045,VALID,17,VALID,0.711884,
2003-09-19, 01:37:00,VALID,919.523,VALID,0,VALID,94.5374,VALID,0.0169808,VALID,19.0358,VALID,12,VALID,0.638421,
2003-09-19, 01:38:00,VALID,919.508,VALID,0,VALID,94.6265,VALID,0.0339617,VALID,19.003,VALID,12,VALID,0.0563447,
2003-09-19, 01:39:00,VALID,919.519,VALID,0,VALID,94.7244,VALID,0.0169808,VALID,18.9906,VALID,358,VALID,0.198989,
2003-09-19, 01:40:00,VALID,919.519,VALID,0,VALID,94.6163,VALID,0.0339617,VALID,18.968,VALID,190,VALID,0.674753,
2003-09-19, 01:41:00,VALID,919.501,VALID,0,VALID,94.6862,VALID,0.0509425,VALID,18.9521,VALID,205,VALID,0.238051,
2003-09-19, 01:42:00,VALID,919.482,VALID,0,VALID,94.8464,VALID,0.0169808,VALID,18.9352,VALID,216,VALID,0.445513,
2003-09-19, 01:43:00,VALID,919.478,VALID,0,VALID,94.9405,VALID,0.0169808,VALID,18.9354,VALID,251,VALID,0.517282,
2003-09-19, 01:44:00,VALID,919.462,VALID,0,VALID,94.9596,VALID,0.0169808,VALID,18.9193,VALID,249,VALID,0.177998,
2003-09-19, 01:45:00,VALID,919.432,VALID,0,VALID,95.1326,VALID,0.0339617,VALID,18.9126,VALID,249,VALID,0.0609809,
2003-09-19, 01:46:00,VALID,919.402,VALID,0,VALID,95.2673,VALID,0.0169808,VALID,18.9255,VALID,249,VALID,0,
2003-09-19, 01:47:00,VALID,919.379,VALID,0,VALID,95.2178,VALID,0.0339617,VALID,18.9359,VALID,249,VALID,0,
2003-09-19, 01:48:00,VALID,919.373,VALID,0,VALID,95.2267,VALID,0,VALID,18.926,VALID,249,VALID,0,
2003-09-19, 01:49:00,VALID,919.351,VALID,0,VALID,95.1974,VALID,0.0169808,VALID,18.9258,VALID,249,VALID,0,
2003-09-19, 01:50:00,VALID,919.341,VALID,0,VALID,95.2445,VALID,0.0679233,VALID,18.9387,VALID,249,VALID,0,
2003-09-19, 01:51:00,VALID,919.327,VALID,0,VALID,95.2178,VALID,0.0339617,VALID,18.9387,VALID,159,VALID,0.118454,
2003-09-19, 01:52:00,VALID,919.309,VALID,0,VALID,95.2101,VALID,0.0339617,VALID,18.9456,VALID,135,VALID,0.0121528,
2003-09-19, 01:53:00,VALID,919.303,VALID,0,VALID,95.0499,VALID,0.0339617,VALID,18.9325,VALID,135,VALID,0.192845,
2003-09-19, 01:54:00,VALID,919.309,VALID,0,VALID,95.1821,VALID,0.0169808,VALID,18.9161,VALID,135,VALID,0.0661058,
2003-09-19, 01:55:00,VALID,919.318,VALID,0,VALID,95.2915,VALID,0,VALID,18.9126,VALID,135,VALID,0.106297,
2003-09-19, 01:56:00,VALID,919.319,VALID,0,VALID,95.3716,VALID,0,VALID,18.9193,VALID,135,VALID,0.10016,
2003-09-19, 01:57:00,VALID,919.337,VALID,0,VALID,95.3309,VALID,-0.0679233,VALID,18.9334,VALID,135,VALID,0.14465,
2003-09-19, 01:58:00,VALID,919.325,VALID,0,VALID,95.4301,VALID,-0.0849042,VALID,18.9307,VALID,135,VALID,0.15579,
2003-09-19, 01:59:00,VALID,919.308,VALID,0,VALID,95.5852,VALID,-0.0679233,VALID,18.9304,VALID,135,VALID,0.233141,
2003-09-19, 02:00:00,VALID,919.302,VALID,0,VALID,95.5509,VALID,-0.101885,VALID,18.9341,VALID,196,VALID,0.397289,
2003-09-19, 02:01:00,VALID,919.287,VALID,0,VALID,95.4276,VALID,-0.0849042,VALID,18.9371,VALID,241,VALID,0.297676,
2003-09-19, 02:02:00,VALID,919.275,VALID,0,VALID,95.4059,VALID,-0.0849042,VALID,18.9399,VALID,243,VALID,0.0835701,
2003-09-19, 02:03:00,VALID,919.238,VALID,0,VALID,95.5013,VALID,-0.0679233,VALID,18.9821,VALID,216,VALID,0.20397,
2003-09-19, 02:04:00,VALID,919.218,VALID,0,VALID,95.3716,VALID,-0.0509425,VALID,18.9985,VALID,177,VALID,0.425347,
2003-09-19, 02:05:00,VALID,919.205,VALID,0,VALID,95.2953,VALID,-0.0849042,VALID,18.995,VALID,175,VALID,0.319661,
2003-09-19, 02:06:00,VALID,919.184,VALID,0,VALID,95.294,VALID,-0.0849042,VALID,19.0047,VALID,175,VALID,0.244721,
2003-09-19, 02:07:00,VALID,919.187,VALID,0,VALID,95.3653,VALID,-0.101885,VALID,19.0012,VALID,175,VALID,0.0650276,
2003-09-19, 02:08:00,VALID,919.177,VALID,0,VALID,95.3106,VALID,-0.0849042,VALID,19.0114,VALID,189,VALID,0.299219,
2003-09-19, 02:09:00,VALID,919.174,VALID,0,VALID,95.2317,VALID,-0.101885,VALID,19.0178,VALID,191,VALID,0.251339,
2003-09-19, 02:10:00,VALID,919.146,VALID,0,VALID,95.1046,VALID,-0.0849042,VALID,19.0111,VALID,193,VALID,0.156039,
2003-09-19, 02:11:00,VALID,919.132,VALID,0,VALID,95.0613,VALID,-0.101885,VALID,19.0144,VALID,209,VALID,0.312066,
2003-09-19, 02:12:00,VALID,919.099,VALID,0,VALID,95.1427,VALID,-0.0339617,VALID,19.0335,VALID,212,VALID,0.157689,
2003-09-19, 02:13:00,VALID,919.079,VALID,0,VALID,95.0944,VALID,0.0339617,VALID,19.0524,VALID,217,VALID,0.314904,
2003-09-19, 02:14:00,VALID,919.054,VALID,0,VALID,94.9889,VALID,0.0339617,VALID,19.042,VALID,264,VALID,0.50947,
2003-09-19, 02:15:00,VALID,919.028,VALID,0,VALID,94.9494,VALID,0.0679233,VALID,19.0484,VALID,260,VALID,0.299279,
2003-09-19, 02:16:00,VALID,919.013,VALID,0,VALID,94.8719,VALID,0.0339617,VALID,19.0681,VALID,260,VALID,0.140625,
2003-09-19, 02:17:00,VALID,919.001,VALID,0,VALID,94.9176,VALID,0,VALID,19.0877,VALID,260,VALID,0.0363051,
2003-09-19, 02:18:00,VALID,918.978,VALID,0,VALID,95.0741,VALID,0.0169808,VALID,19.0902,VALID,260,VALID,0.0842928,
2003-09-19, 02:19:00,VALID,918.971,VALID,0,VALID,95.1796,VALID,0.0169808,VALID,19.1033,VALID,280,VALID,0.248851,
2003-09-19, 02:20:00,VALID,918.956,VALID,0,VALID,95.1097,VALID,0.0169808,VALID,19.1033,VALID,286,VALID,0.29988,
2003-09-19, 02:21:00,VALID,918.944,VALID,0,VALID,95.1376,VALID,0,VALID,19.0971,VALID,286,VALID,0.0833333,
2003-09-19, 02:22:00,VALID,918.921,VALID,0,VALID,95.3055,VALID,0,VALID,19.0904,VALID,286,VALID,0.132813,
2003-09-19, 02:23:00,VALID,918.907,VALID,0,VALID,95.336,VALID,0,VALID,19.074,VALID,286,VALID,0.0203993,
2003-09-19, 02:24:00,VALID,918.901,VALID,0,VALID,95.35,VALID,0.0169808,VALID,19.0648,VALID,286,VALID,0.263455,
2003-09-19, 02:25:00,VALID,918.891,VALID,0,VALID,95.5357,VALID,0.0679233,VALID,19.0388,VALID,286,VALID,0.122677,
2003-09-19, 02:26:00,VALID,918.855,VALID,0,VALID,95.7073,VALID,0.0169808,VALID,19.0355,VALID,286,VALID,0.00252757,
2003-09-19, 02:27:00,VALID,918.834,VALID,0,VALID,95.7238,VALID,0,VALID,19.0351,VALID,286,VALID,0,
2003-09-19, 02:28:00,VALID,918.839,VALID,0,VALID,95.6107,VALID,0,VALID,19.0226,VALID,286,VALID,0.00111607,
2003-09-19, 02:29:00,VALID,918.832,VALID,0,VALID,95.6895,VALID,-0.0169808,VALID,18.9936,VALID,294,VALID,0.0225929,
2003-09-19, 02:30:00,VALID,918.831,VALID,0,VALID,95.9108,VALID,-0.0169808,VALID,18.9871,VALID,9,VALID,0.447266,
2003-09-19, 02:31:00,VALID,918.841,VALID,0,VALID,96.0201,VALID,0,VALID,18.9707,VALID,10,VALID,0.450863,
2003-09-19, 02:32:00,VALID,918.853,VALID,0,VALID,96.1028,VALID,0,VALID,18.9737,VALID,10,VALID,0.471755,
2003-09-19, 02:33:00,VALID,918.834,VALID,0,VALID,96.1282,VALID,0,VALID,18.9873,VALID,10,VALID,0.385417,
2003-09-19, 02:34:00,VALID,918.834,VALID,0,VALID,96.0341,VALID,0,VALID,18.9936,VALID,10,VALID,0.328325,
2003-09-19, 02:35:00,VALID,918.818,VALID,0,VALID,95.9273,VALID,0,VALID,18.9844,VALID,10,VALID,0.336174,
2003-09-19, 02:36:00,VALID,918.797,VALID,0,VALID,95.8777,VALID,0,VALID,18.958,VALID,10,VALID,0.303539,
2003-09-19, 02:37:00,VALID,918.767,VALID,0,VALID,95.8027,VALID,-0.0339617,VALID,18.9454,VALID,10,VALID,0.106086,
2003-09-19, 02:38:00,VALID,918.76,VALID,0,VALID,95.7798,VALID,0,VALID,18.9258,VALID,10,VALID,0,
2003-09-19, 02:39:00,VALID,918.773,VALID,0,VALID,95.8726,VALID,0,VALID,18.9128,VALID,10,VALID,0.00560897,
2003-09-19, 02:40:00,VALID,918.763,VALID,0,VALID,95.9057,VALID,0.0169808,VALID,18.9029,VALID,4,VALID,0.337358,
2003-09-19, 02:41:00,VALID,918.763,VALID,0,VALID,95.8281,VALID,0,VALID,18.8863,VALID,319,VALID,0.434544,
2003-09-19, 02:42:00,VALID,918.758,VALID,0,VALID,95.8637,VALID,-0.0679233,VALID,18.9103,VALID,319,VALID,0.0674913,
2003-09-19, 02:43:00,VALID,918.744,VALID,0,VALID,95.8167,VALID,-0.0849042,VALID,18.9175,VALID,319,VALID,0.0373264,
2003-09-19, 02:44:00,VALID,918.729,VALID,0,VALID,95.7836,VALID,-0.0849042,VALID,18.9175,VALID,320,VALID,0.251267,
2003-09-19, 02:45:00,VALID,918.725,VALID,0,VALID,95.7671,VALID,-0.0849042,VALID,18.9143,VALID,320,VALID,0.0411305,
2003-09-19, 02:46:00,VALID,918.734,VALID,0,VALID,95.7175,VALID,-0.101885,VALID,18.911,VALID,320,VALID,0,
2003-09-19, 02:47:00,VALID,918.736,VALID,0,VALID,95.6603,VALID,-0.101885,VALID,18.8877,VALID,320,VALID,0,
2003-09-19, 02:48:00,VALID,918.736,VALID,0,VALID,95.6819,VALID,-0.118866,VALID,18.9018,VALID,320,VALID,0,
2003-09-19, 02:49:00,VALID,918.726,VALID,0,VALID,95.6921,VALID,-0.101885,VALID,18.8852,VALID,320,VALID,0,
2003-09-19, 02:50:00,VALID,918.73,VALID,0,VALID,95.6361,VALID,-0.101885,VALID,18.8594,VALID,320,VALID,0.00534539,
2003-09-19, 02:51:00,VALID,918.726,VALID,0,VALID,95.6526,VALID,-0.101885,VALID,18.8338,VALID,320,VALID,0.233774,
2003-09-19, 02:52:00,VALID,918.699,VALID,0,VALID,95.8141,VALID,-0.118866,VALID,18.8045,VALID,320,VALID,0.108902,
2003-09-19, 02:53:00,VALID,918.692,VALID,0,VALID,95.9731,VALID,-0.101885,VALID,18.7787,VALID,320,VALID,0.00160256,
2003-09-19, 02:54:00,VALID,918.693,VALID,0,VALID,96.0392,VALID,-0.118866,VALID,18.7528,VALID,320,VALID,0.00118371,
2003-09-19, 02:55:00,VALID,918.682,VALID,0,VALID,95.9947,VALID,-0.101885,VALID,18.7305,VALID,320,VALID,0.283088,
2003-09-19, 02:56:00,VALID,918.681,VALID,0,VALID,96.1028,VALID,-0.101885,VALID,18.6883,VALID,51,VALID,0.505345,
2003-09-19, 02:57:00,VALID,918.69,VALID,0,VALID,96.3317,VALID,-0.0509425,VALID,18.649,VALID,102,VALID,0.453125,
2003-09-19, 02:58:00,VALID,918.7,VALID,0,VALID,96.5466,VALID,0,VALID,18.6193,VALID,125,VALID,0.211338,
2003-09-19, 02:59:00,VALID,918.724,VALID,0,VALID,96.7182,VALID,0,VALID,18.5902,VALID,125,VALID,0.0419034,
2003-09-19, 03:00:00,VALID,918.722,VALID,0,VALID,96.7805,VALID,0,VALID,18.5771,VALID,125,VALID,0.0314611,
2003-09-19, 03:01:00,VALID,918.687,VALID,0,VALID,96.7322,VALID,-0.0169808,VALID,18.5644,VALID,123,VALID,0.287977,
2003-09-19, 03:02:00,VALID,918.656,VALID,0,VALID,96.7538,VALID,0.0169808,VALID,18.542,VALID,122,VALID,0.374132,
2003-09-19, 03:03:00,VALID,918.619,VALID,0,VALID,96.9242,VALID,0.0169808,VALID,18.5123,VALID,122,VALID,0.448691,
2003-09-19, 03:04:00,VALID,918.597,VALID,0,VALID,97.1442,VALID,0,VALID,18.5033,VALID,122,VALID,0.233686,
2003-09-19, 03:05:00,VALID,918.579,VALID,0,VALID,97.2688,VALID,0,VALID,18.4805,VALID,122,VALID,0.119336,
2003-09-19, 03:06:00,VALID,918.564,VALID,0,VALID,97.3134,VALID,0,VALID,18.4712,VALID,122,VALID,0.0377232,
2003-09-19, 03:07:00,VALID,918.515,VALID,0,VALID,97.2943,VALID,0,VALID,18.4512,VALID,122,VALID,0.124789,
2003-09-19, 03:08:00,VALID,918.517,VALID,0,VALID,97.3846,VALID,0,VALID,18.4355,VALID,122,VALID,0.00390625,
2003-09-19, 03:09:00,VALID,918.484,VALID,0,VALID,97.4405,VALID,0,VALID,18.4159,VALID,122,VALID,0.00102796,
2003-09-19, 03:10:00,VALID,918.463,VALID,0,VALID,97.4876,VALID,-0.0339617,VALID,18.4097,VALID,122,VALID,0.0010016,
2003-09-19, 03:11:00,VALID,918.446,VALID,0,VALID,97.5257,VALID,0,VALID,18.4131,VALID,122,VALID,0,
2003-09-19, 03:12:00,VALID,918.435,VALID,0,VALID,97.4431,VALID,0,VALID,18.403,VALID,122,VALID,0.0480769,
2003-09-19, 03:13:00,VALID,918.415,VALID,0,VALID,97.4812,VALID,0,VALID,18.3836,VALID,138,VALID,0.512311,
2003-09-19, 03:14:00,VALID,918.408,VALID,0,VALID,97.574,VALID,0,VALID,18.3873,VALID,153,VALID,0.780101,
2003-09-19, 03:15:00,VALID,918.378,VALID,0,VALID,97.6694,VALID,0,VALID,18.3675,VALID,150,VALID,0.909128,
2003-09-19, 03:16:00,VALID,918.349,VALID,0,VALID,97.8169,VALID,-0.0169808,VALID,18.3647,VALID,145,VALID,0.564798,
2003-09-19, 03:17:00,VALID,918.333,VALID,0,VALID,97.8449,VALID,0,VALID,18.3612,VALID,138,VALID,0.603165,
2003-09-19, 03:18:00,VALID,918.341,VALID,0,VALID,97.8767,VALID,0,VALID,18.3645,VALID,140,VALID,0.531723,
2003-09-19, 03:19:00,VALID,918.336,VALID,0,VALID,97.9314,VALID,0,VALID,18.3612,VALID,144,VALID,0.454392,
2003-09-19, 03:20:00,VALID,918.312,VALID,0,VALID,97.8945,VALID,0,VALID,18.3647,VALID,144,VALID,0.0991753,
2003-09-19, 03:21:00,VALID,918.282,VALID,0,VALID,97.6948,VALID,0,VALID,18.3386,VALID,144,VALID,0.00868056,
2003-09-19, 03:22:00,VALID,918.267,VALID,0,VALID,97.6147,VALID,0,VALID,18.3294,VALID,144,VALID,0,
2003-09-19, 03:23:00,VALID,918.262,VALID,0,VALID,97.5893,VALID,-0.0339617,VALID,18.3262,VALID,144,VALID,0,
2003-09-19, 03:24:00,VALID,918.268,VALID,0,VALID,97.5524,VALID,0,VALID,18.3294,VALID,144,VALID,0.0125,
2003-09-19, 03:25:00,VALID,918.242,VALID,0,VALID,97.5003,VALID,0,VALID,18.3034,VALID,144,VALID,0.105804,
2003-09-19, 03:26:00,VALID,918.225,VALID,0,VALID,97.4952,VALID,-0.0169808,VALID,18.2937,VALID,144,VALID,0.00675676,
2003-09-19, 03:27:00,VALID,918.212,VALID,0,VALID,97.5791,VALID,0,VALID,18.2937,VALID,144,VALID,0,
2003-09-19, 03:28:00,VALID,918.208,VALID,0,VALID,97.5893,VALID,0,VALID,18.3068,VALID,144,VALID,0.0419408,
2003-09-19, 03:29:00,VALID,918.195,VALID,0,VALID,97.5511,VALID,-0.0169808,VALID,18.3064,VALID,144,VALID,0.170873,
2003-09-19, 03:30:00,VALID,918.197,VALID,0,VALID,97.4939,VALID,-0.0509425,VALID,18.3234,VALID,144,VALID,0.00331439,
2003-09-19, 03:31:00,VALID,918.195,VALID,0,VALID,97.5689,VALID,-0.0339617,VALID,18.3331,VALID,144,VALID,0,
2003-09-19, 03:32:00,VALID,918.197,VALID,0,VALID,97.7648,VALID,-0.0849042,VALID,18.3423,VALID,144,VALID,0,
2003-09-19, 03:33:00,VALID,918.188,VALID,0,VALID,97.7406,VALID,0,VALID,18.3811,VALID,144,VALID,0,
2003-09-19, 03:34:00,VALID,918.182,VALID,0,VALID,97.3413,VALID,0.0679233,VALID,18.3832,VALID,144,VALID,0,
2003-09-19, 03:35:00,VALID,918.183,VALID,0,VALID,97.0412,VALID,0.0679233,VALID,18.3769,VALID,144,VALID,0,
2003-09-19, 03:36:00,VALID,918.182,VALID,0,VALID,97.1633,VALID,0.0679233,VALID,18.3737,VALID,144,VALID,0,
2003-09-19, 03:37:00,VALID,918.161,VALID,0,VALID,97.3184,VALID,0.0339617,VALID,18.3868,VALID,144,VALID,0.136364,